TimeEDT,TemperatureF,Dew PointF,Humidity,Sea Level PressureIn,VisibilityMPH,Wind Direction,Wind SpeedMPH,Gust SpeedMPH,PrecipitationIn,Events,Conditions,WindDirDegrees,DateUTC
12:53 AM,78.1,75.0,90,29.87,10.0,Calm,Calm,-,N/A,,Clear,0,2013-09-26 04:53:00
1:53 AM,77.0,75.0,94,29.87,10.0,Calm,Calm,-,N/A,,Clear,0,2013-09-26 05:53:00
2:53 AM,77.0,75.0,94,29.86,10.0,WSW,4.6,-,N/A,,Clear,240,2013-09-26 06:53:00
3:53 AM,77.0,75.0,94,29.86,10.0,WSW,4.6,-,N/A,,Clear,250,2013-09-26 07:53:00
4:53 AM,77.0,75.0,94,29.86,10.0,Calm,Calm,-,N/A,,Clear,0,2013-09-26 08:53:00
5:53 AM,77.0,75.0,94,29.86,10.0,SW,3.5,-,N/A,,Clear,220,2013-09-26 09:53:00
6:53 AM,77.0,75.0,94,29.87,10.0,SW,3.5,-,N/A,,Clear,230,2013-09-26 10:53:00
7:53 AM,79.0,78.1,97,29.88,10.0,Calm,Calm,-,N/A,,Clear,0,2013-09-26 11:53:00
8:53 AM,82.0,79.0,90,29.90,10.0,WSW,9.2,-,N/A,,Clear,240,2013-09-26 12:53:00
9:53 AM,84.0,78.1,82,29.90,10.0,WSW,12.7,18.4,N/A,,Scattered Clouds,250,2013-09-26 13:53:00
10:53 AM,87.1,77.0,72,29.90,10.0,SW,11.5,-,N/A,,Scattered Clouds,230,2013-09-26 14:53:00
11:53 AM,87.1,75.0,67,29.89,10.0,West,11.5,-,N/A,,Mostly Cloudy,270,2013-09-26 15:53:00
12:03 PM,87.8,75.2,66,29.88,10.0,WSW,12.7,-,N/A,,Mostly Cloudy,250,2013-09-26 16:03:00
12:15 PM,89.6,75.2,62,29.88,10.0,West,10.4,-,N/A,,Mostly Cloudy,270,2013-09-26 16:15:00
12:53 PM,90.0,75.0,61,29.86,10.0,West,15.0,24.2,0.00,,Scattered Clouds,270,2013-09-26 16:53:00
1:53 PM,89.1,75.9,65,29.84,10.0,West,13.8,-,0.00,,Mostly Cloudy,270,2013-09-26 17:53:00
2:29 PM,82.4,75.2,79,29.86,3.0,WNW,18.4,27.6,0.05,Rain-Thunderstorm,Light Rain,290,2013-09-26 18:29:00
2:36 PM,80.6,75.2,84,29.85,2.5,West,9.2,23.0,0.12,Rain-Thunderstorm,Heavy Rain,270,2013-09-26 18:36:00
2:39 PM,80.6,75.2,84,29.85,3.0,West,5.8,-,0.12,Rain,Rain,270,2013-09-26 18:39:00
2:53 PM,81.0,78.1,91,29.84,10.0,West,5.8,-,0.12,,Scattered Clouds,280,2013-09-26 18:53:00
3:53 PM,89.1,78.1,70,29.84,10.0,West,11.5,21.9,N/A,,Clear,280,2013-09-26 19:53:00
4:22 PM,80.6,73.4,79,29.85,0.8,WSW,8.1,36.8,0.19,Rain,Heavy Rain,250,2013-09-26 20:22:00
4:27 PM,80.6,75.2,84,29.85,10.0,West,8.1,-,0.19,Rain,Light Rain,280,2013-09-26 20:27:00
4:53 PM,82.0,78.1,88,29.85,10.0,West,9.2,-,0.19,,Scattered Clouds,270,2013-09-26 20:53:00
5:53 PM,81.0,75.0,82,29.83,10.0,West,8.1,-,N/A,,Clear,280,2013-09-26 21:53:00
6:53 PM,82.0,75.9,82,29.83,10.0,West,10.4,-,N/A,,Clear,280,2013-09-26 22:53:00
7:53 PM,81.0,75.9,85,29.84,10.0,West,6.9,-,N/A,,Partly Cloudy,270,2013-09-26 23:53:00
8:53 PM,80.1,75.9,87,29.85,10.0,WSW,8.1,-,N/A,,Clear,240,2013-09-27 00:53:00
9:53 PM,80.1,75.9,87,29.87,10.0,WSW,5.8,-,N/A,,Clear,250,2013-09-27 01:53:00
10:53 PM,80.1,75.9,87,29.87,10.0,WSW,4.6,-,N/A,,Clear,250,2013-09-27 02:53:00
11:53 PM,79.0,77.0,94,29.88,10.0,West,5.8,-,N/A,,Clear,260,2013-09-27 03:53:00